INTELSAT 20 (IS-20) (38740 NORAD) Tracking and Keplerian Element Data

This shows tracking and keplerian element data for the satellite.

Feedback or suggestion? Click here.




ElementValue
Catalog38740
NameINTELSAT 20 (IS-20)
Epoch Orbit2432
Epoch Day81.74491782
Epoch Year2019
RAAN137.6244
Inclination0.018
Eccentricity0.0001871
Argument of Perigee34.4326
Mean Anonmoly344.5429
Mean Motion1.00271506
Decay Rate-4.9E-07
L11 38740U 12043A 19081.74491782 -.00000049 00000-0 00000+0 0 9996
L22 38740 0.0180 137.6244 0001871 34.4326 344.5429 1.00271506 24323

Live tracking and technical data element details for INTELSAT 20 (IS-20) (NORAD 38740). INTELSAT 20 (IS-20) can be tracked NOW for your location showing map with azimuth and elevation plus other details from your city location.

Track the satellite on the map from your city or location and see movement details for azimuth, elevation, latitude, longitude, range, height, and movement on the map or in text.







IsCatalogInMostPopularTable: catalog: 38740, numindb: 218
Update: records affected: 1



GetName: 38740 INTELSAT 20 (IS-20)

Hit Count: updated at: Sun, 24 Mar 2019 08:38:30 GMT